This demonstration page uses our WeatherBlox Daily Observations layout. Learn more.

Left ArrowRight Arrow

39.08367, -84.50855

Hourly Observations for March 9, 2016

Temp ( °F °C ) Dew Point ( °F °C ) Humidity (%) Winds ( mph kmh ) Pressure ( in mb ) Visibility ( mi km ) Precip ( " mm )
12:53 am 00:53 Clear 46 7.8 41 5 83 83 N N/A 30.07 1018 10 16.0934 N/A
1:53 am 01:53 Clear 49 9.4 42 5.6 77 77 N N/A 30.07 1018 10 16.0934 N/A
2:53 am 02:53 Clear 48 8.9 43 6.1 83 83 N N/A 30.06 1018 10 16.0934 N/A
3:53 am 03:53 Clear 45 7.2 43 6.1 93 93 S 5 7 30.06 1018 10 16.0934 N/A
4:53 am 04:53 Clear 46 7.8 43 6.1 89 89 S 3 6 30.06 1018 10 16.0934 N/A
5:53 am 05:53 Clear 46 7.8 43 6.1 89 89 N N/A 30.05 1018 10 16.0934 N/A
6:53 am 06:53 Clear 47 8.3 44 6.7 90 90 undefined N/A 30.06 1018 10 16.0934 N/A
6:55 am 06:55 Clear 47 8.3 44 6.7 90 90 SW 3 6 30.06 1018 10 16.0934 N/A
7:53 am 07:53 Sunny 49 9.4 46 7.8 90 90 SSW 3 6 30.07 1018 10 16.0934 N/A
8:53 am 08:53 Sunny 56 13.3 50 10 81 81 SW 5 7 30.08 1019 10 16.0934 N/A
9:53 am 09:53 Sunny 63 17.2 51 10.6 65 65 S 12 19 30.1 1019 10 16.0934 N/A
10:53 am 10:53 Sunny 68 20 51 10.6 55 55 SSW 20 31 30.09 1019 10 16.0934 N/A
11:53 am 11:53 Sunny 69 20.6 51 10.6 53 53 SSW 18 30 30.06 1018 10 16.0934 N/A
12:53 pm 12:53 Sunny 69 20.6 52 11.1 55 55 SSW 18 30 30.05 1018 10 16.0934 N/A
1:53 pm 13:53 Mostly Sunny 68 20 52 11.1 57 57 SW 14 22 30.03 1017 10 16.0934 N/A
2:53 pm 14:53 Cloudy with Light Rain 67 19.4 53 11.7 61 61 SW 9 15 30.04 1017 10 16.0934 N/A
3:53 pm 15:53 Cloudy 65 18.3 53 11.7 66 66 SSW 13 20 30.05 1018 10 16.0934 N/A
4:53 pm 16:53 Cloudy with Light Rain 61 16.1 57 13.9 87 87 N N/A 30.04 1017 7 11.26538 0.02 0.508
5:53 pm 17:53 Cloudy with Light Rain 59 15 58 14.4 96 96 N N/A 30.06 1018 4 6.43736 0.04 1.016
6:53 pm 18:53 Cloudy with Light Rain 58 14.4 58 14.4 100 100 ENE 3 6 30.04 1017 7 11.26538 0.03 0.762
7:53 pm 19:53 Cloudy with Mist and Fog 57 13.9 57 13.9 100 100 N N/A 30.05 1018 4 6.43736 N/A
8:03 pm 20:03 Cloudy with Mist and Fog 57 14 57 14 100 100 N N/A 30.06 1018 2 3.21868 N/A
8:10 pm 20:10 Cloudy with Mist and Fog 57 14 57 14 100 100 N N/A 30.06 1018 3 4.82802 N/A
8:53 pm 20:53 Cloudy with Light Rain 56 13.3 56 13.3 100 100 ESE 3 6 30.05 1018 3 4.82802 N/A
9:00 pm 21:00 Cloudy with Light Rain 55 13 55 13 100 100 N N/A 30.06 1018 2.5 4.02335 N/A
9:17 pm 21:17 Mostly Cloudy with Mist and Fog 56 13.3 56 13.3 100 100 N N/A 30.06 1018 3 4.82802 N/A
9:53 pm 21:53 Clear with Mist and Fog 54 12.2 54 12.2 100 100 S 3 6 30.05 1018 2 3.21868 N/A
10:01 pm 22:01 Partly Cloudy with Mist and Fog 54 12.2 54 12.2 100 100 N N/A 30.06 1018 2 3.21868 N/A
10:15 pm 22:15 Mostly Cloudy with Mist and Fog 55 12.8 55 12.8 100 100 N N/A 30.06 1018 3 4.82802 N/A
10:50 pm 22:50 Cloudy with Fog 54 12 54 12 100 100 N N/A 30.06 1018 0.25 0.402335 N/A
10:53 pm 22:53 Cloudy with Fog 55 12.8 55 12.8 100 100 N N/A 30.05 1018 0.25 0.402335 N/A
11:00 pm 23:00 Cloudy with Fog 55 13 55 13 100 100 N N/A 30.06 1018 0.5 0.80467 N/A
11:43 pm 23:43 Cloudy with Fog 55 12.8 55 12.8 100 100 N N/A 30.06 1018 0.25 0.402335 N/A
11:53 pm 23:53 Cloudy with Fog 54 12.2 54 12.2 100 100 N N/A 30.05 1018 0.25 0.402335 N/A

Powered by AerisWeather